Racine, WI

12:42 PM CST on February 10, 2016 (GMT -0600)
Batten

Weather History for KRAC - March, 2013

Change the Weather History Date:

Monday, March 18, 2013

  Actual Average Record
Temperature  
Mean Temperature 28 °F -  
Max Temperature 35 °F 40 °F 73 °F (2012)
Min Temperature 21 °F 27 °F 7 °F (1965)
Degree Days  
Heating Degree Days 37    
Moisture  
Dew Point 26 °F    
Average Humidity 79    
Maximum Humidity 93    
Minimum Humidity 63    
Precipitation  
Precipitation 0.09 in - - ()
Sea Level Pressure  
Sea Level Pressure 29.73 in    
Wind  
Wind Speed 13 mph (SSE)    
Max Wind Speed 22 mph    
Max Gust Speed 37 mph    
Visibility 5 miles    
Events Fog , Snow    
Averages and records for this station are not official NWS values.
T = Trace of Precipitation, MM = Missing Value Source: NWS Daily Summary

Daily Weather History Graph

Daily Weather History Graph

Search for Another Location

Airport or City:

Trip Planner

Search our weather history database for the weather conditions in past years. The results will help you decide how hot, cold, wet, or windy it might be!

Date:

Astronomy

Mar. 18, 2013 Rise Set
Actual Time 6:57 AM CDT 7:01 PM CDT
Civil Twilight 6:29 AM CDT 7:29 PM CDT
Nautical Twilight 5:56 AM CDT 8:02 PM CDT
Astronomical Twilight 5:22 AM CDT 8:36 PM CDT
Moon 10:49 AM CDT (3/18) 1:08 AM CDT (3/18)
Length of Visible Light 13h 00m
Length of Day
12h 03m
Waxing Crescent, 41% of the Moon is Illuminated
Mar 18
Waxing Crescent
Mar 19
First Quarter
Mar 27
Full
Apr 2
Last Quarter
Apr 10
New

Hourly Weather History & Observations

Time (CDT) Temp. Windchill Dew Point Humidity Pressure Visibility Wind Dir Wind Speed Gust Speed Precip Events Conditions
12:21 AM 33.8 °F 23.2 °F 23.0 °F 65% 30.03 in 10.0 mi ESE 17.3 mph 25.3 mph N/A   Mostly Cloudy
12:38 AM 32.0 °F 21.2 °F 21.2 °F 64% 30.03 in 10.0 mi SE 16.1 mph 23.0 mph N/A   Scattered Clouds
12:53 AM 32.0 °F 23.0 °F 21.9 °F 66% 30.05 in 10.0 mi SE 11.5 mph 21.9 mph N/A   Partly Cloudy
1:26 AM 32.0 °F 20.5 °F 21.2 °F 64% 30.00 in 10.0 mi ESE 18.4 mph 24.2 mph N/A   Mostly Cloudy
1:53 AM 32.0 °F 22.1 °F 21.9 °F 66% 30.01 in 10.0 mi SE 13.8 mph 21.9 mph N/A   Mostly Cloudy
2:09 AM 30.2 °F 19.8 °F 21.2 °F 69% 29.99 in 10.0 mi SE 13.8 mph 20.7 mph N/A   Scattered Clouds
2:53 AM 30.9 °F 21.2 °F 23.0 °F 72% 29.99 in 10.0 mi SE 12.7 mph 21.9 mph N/A   Mostly Cloudy
4:53 AM 32.0 °F 20.8 °F 24.1 °F 73% 29.91 in 10.0 mi ESE 17.3 mph - N/A   Overcast
5:53 AM 32.0 °F 21.2 °F 24.1 °F 73% 29.88 in 10.0 mi ESE 16.1 mph 21.9 mph N/A   Overcast
6:53 AM 32.0 °F 21.6 °F 24.1 °F 73% 29.86 in 10.0 mi East 15.0 mph - N/A   Overcast
7:53 AM 32.0 °F 23.0 °F 25.0 °F 75% 29.83 in 6.0 mi ESE 11.5 mph - 0.00 in Snow Light Snow
8:16 AM 32.0 °F 23.6 °F 26.6 °F 80% 29.79 in 1.8 mi East 10.4 mph - 0.00 in Snow Light Snow
8:34 AM 30.2 °F 21.3 °F 26.6 °F 86% 29.78 in 0.8 mi East 10.4 mph - 0.01 in Snow Light Snow
8:41 AM 30.2 °F 21.3 °F 26.6 °F 86% 29.78 in 0.8 mi East 10.4 mph - 0.01 in Snow Light Snow
8:51 AM 30.2 °F 21.9 °F 26.6 °F 86% 29.78 in 1.0 mi East 9.2 mph - 0.01 in Snow Light Snow
8:53 AM 30.9 °F 21.7 °F 27.0 °F 85% 29.80 in 0.8 mi East 11.5 mph - 0.01 in Snow Light Snow
9:09 AM 30.2 °F 21.3 °F 26.6 °F 86% 29.77 in 1.0 mi East 10.4 mph - 0.01 in Snow Light Snow
9:17 AM 30.2 °F 21.3 °F 26.6 °F 86% 29.77 in 0.8 mi East 10.4 mph - 0.01 in Snow Light Snow
9:28 AM 30.2 °F 21.3 °F 28.4 °F 93% 29.76 in 1.0 mi East 10.4 mph - 0.02 in Snow Light Snow
9:35 AM 30.2 °F 20.8 °F 28.4 °F 93% 29.76 in 1.0 mi East 11.5 mph - 0.02 in Snow Light Snow
9:44 AM 30.2 °F 21.9 °F 28.4 °F 93% 29.74 in 0.5 mi East 9.2 mph - 0.02 in Fog , Snow Snow
9:53 AM 32.0 °F 23.6 °F 28.0 °F 85% 29.76 in 0.5 mi East 10.4 mph - 0.03 in Fog , Snow Snow
10:01 AM 32.0 °F 24.2 °F 28.4 °F 87% 29.73 in 0.5 mi East 9.2 mph - 0.00 in Fog , Snow Light Snow
10:15 AM 32.0 °F 23.6 °F 28.4 °F 87% 29.72 in 1.2 mi East 10.4 mph - 0.00 in Snow Light Snow
10:53 AM 32.0 °F 23.0 °F 28.9 °F 88% 29.73 in 0.8 mi ESE 11.5 mph - 0.00 in Snow Light Snow
11:31 AM 33.8 °F 25.3 °F 28.4 °F 81% 29.69 in 1.0 mi ESE 11.5 mph - 0.00 in Snow Light Snow
11:53 AM 33.1 °F 24.4 °F 30.0 °F 89% 29.70 in 1.2 mi ESE 11.5 mph - 0.01 in Snow Light Snow
12:13 PM 33.8 °F 27.0 °F 30.2 °F 87% 29.67 in 0.8 mi SE 8.1 mph - 0.00 in Snow Light Snow
12:51 PM 33.8 °F 25.3 °F 28.4 °F 81% 29.65 in 1.2 mi SSE 11.5 mph - 0.02 in Snow Light Snow
12:53 PM 33.1 °F 26.1 °F 28.9 °F 85% 29.67 in 1.2 mi SSE 8.1 mph - 0.02 in Snow Light Snow
1:06 PM 33.8 °F 27.0 °F 30.2 °F 87% 29.64 in 1.5 mi SSE 8.1 mph - 0.00 in Snow Light Snow
1:47 PM 33.8 °F 27.7 °F 30.2 °F 87% 29.62 in 3.0 mi South 6.9 mph - 0.00 in   Overcast
1:48 PM 34.0 °F 28.8 °F 30.0 °F 85% 29.64 in 3.0 mi South 5.8 mph - 0.00 in   Overcast
2:35 PM 33.8 °F 27.7 °F 30.2 °F 87% 29.61 in 1.8 mi South 6.9 mph - 0.00 in Snow Light Snow
2:50 PM 33.8 °F 27.0 °F 30.2 °F 87% 29.60 in 1.5 mi South 8.1 mph - 0.00 in Snow Light Snow
2:53 PM 34.0 °F 27.2 °F 30.0 °F 85% 29.62 in 1.5 mi South 8.1 mph - 0.00 in Snow Light Snow
3:53 PM 35.1 °F 28.6 °F 30.9 °F 85% 29.60 in 1.2 mi SW 8.1 mph - 0.01 in Snow Light Snow
4:11 PM 35.6 °F 28.6 °F 30.2 °F 81% 29.59 in 3.0 mi SW 9.2 mph - 0.00 in Snow Light Snow
4:38 PM 35.6 °F 28.0 °F 30.2 °F 81% 29.59 in 4.0 mi WSW 10.4 mph - 0.00 in Snow Light Snow
4:44 PM 35.6 °F 28.6 °F 30.2 °F 81% 29.59 in 2.5 mi WSW 9.2 mph - 0.00 in Snow Light Snow
4:53 PM 35.1 °F 27.4 °F 30.0 °F 82% 29.60 in 4.0 mi WSW 10.4 mph 18.4 mph 0.00 in   Haze
5:00 PM 35.6 °F 28.0 °F 30.2 °F 81% 29.58 in 6.0 mi WSW 10.4 mph - N/A   Haze
5:16 PM 35.6 °F 27.5 °F 30.2 °F 81% 29.59 in 2.5 mi West 11.5 mph 17.3 mph 0.00 in Snow Light Snow
5:27 PM 35.6 °F 29.2 °F 30.2 °F 81% 29.59 in 3.0 mi West 8.1 mph 17.3 mph 0.00 in Snow Light Snow
5:39 PM 35.6 °F 30.7 °F 30.2 °F 81% 29.59 in 3.0 mi West 5.8 mph 16.1 mph 0.00 in   Haze
5:53 PM 35.1 °F 29.3 °F 30.0 °F 82% 29.60 in 5.0 mi West 6.9 mph - 0.00 in   Haze
6:21 PM 35.6 °F 28.6 °F 28.4 °F 75% 29.59 in 8.0 mi WSW 9.2 mph - N/A   Overcast
6:53 PM 35.1 °F 25.9 °F 28.9 °F 78% 29.62 in 6.0 mi West 13.8 mph 19.6 mph 0.01 in   Haze
7:32 PM 32.0 °F 19.5 °F 28.4 °F 87% 29.62 in 5.0 mi West 21.9 mph 29.9 mph N/A   Overcast
7:53 PM 30.9 °F 19.1 °F 24.1 °F 76% 29.65 in 10.0 mi West 18.4 mph 31.1 mph N/A   Overcast
8:53 PM 28.0 °F 16.1 °F 18.0 °F 66% 29.68 in 10.0 mi West 16.1 mph 36.8 mph N/A   Overcast
9:42 PM 26.6 °F 12.4 °F 15.8 °F 64% 29.68 in 10.0 mi West 21.9 mph 28.8 mph N/A   Overcast
9:53 PM 26.1 °F 12.7 °F 15.1 °F 63% 29.72 in 10.0 mi West 18.4 mph 29.9 mph N/A   Overcast
10:33 PM 24.8 °F 11.5 °F 14.0 °F 64% 29.70 in 10.0 mi West 17.3 mph 33.4 mph N/A   Overcast
10:53 PM 23.0 °F 8.7 °F 12.9 °F 65% 29.73 in 10.0 mi West 18.4 mph 29.9 mph N/A   Overcast
11:20 PM 21.2 °F 6.8 °F 10.4 °F 63% 29.71 in 10.0 mi West 17.3 mph 26.5 mph N/A   Scattered Clouds
11:53 PM 21.9 °F 9.2 °F 10.9 °F 63% 29.74 in 10.0 mi West 13.8 mph 26.5 mph N/A   Mostly Cloudy